Regional Weather Roundup
Issued by NWS Charleston, SC

Current Version | Previous Version | Graphics & Text | Print | Product List | Glossary On
Versions: 1 2 3 4 5 6 7 8 9 10 11 12 13 14 15 16 17 18 19 20 21 22 23 24 25 26 27 28 29 30 31 32 33 34 35 36 37 38 39 40 41 42 43 44 45 46 47 48 49 50
000 ASUS42 KCHS 041012 RWRCHS REGIONAL WEATHER ROUNDUP NATIONAL WEATHER SERVICE CHARLESTON SC 500 AM EST SUN DEC 04 2016 NOTE: "FAIR" INDICATES FEW OR NO CLOUDS BELOW 12,000 FEET WITH NO SIGNIFICANT WEATHER AND/OR OBSTRUCTIONS TO VISIBILITY. NOT ALL STATIONS ARE QUALITY CONTROLLED. USE DATA WITH CAUTION... ESPECIALLY DEWPOINT OBSERVATIONS. SCZ027-030-031-034>040-042>050-041100- ...SOUTHEAST SOUTH CAROLINA... CITY SKY/WX TMP DP RH WIND PRES REMARKS N CHARLESTON CLOUDY 50 36 58 NE7 30.22F WATERFRONT PRK N/A 52 44 74 N7 30.21S MOUNT PLEASANT NOT AVBL JOHNS ISLAND FAIR 50 41 71 N7 30.21F PINOPOLIS N/A 52 37 58 NE8 30.15F MONCKS CORNER CLOUDY 48 34 57 CALM 30.23F SUMMERVILLE CLOUDY 48 41 76 N3 30.23F BEAUFORT MCAS CLOUDY 51 41 68 NE5 30.20F BEAUFORT ARPT FAIR 52 43 71 NE10 30.19S HILTON HEAD IS PTCLDY 54 45 71 N9 30.19F WALTERBORO CLOUDY 52 37 58 NE6 30.22F ALLENDALE CLOUDY 50 39 66 CALM 30.19F ...SOUTHERN MIDLANDS AND PEE DEE... CITY SKY/WX TMP DP RH WIND PRES REMARKS GEORGETOWN NOT AVBL KINGSTREE LGT RAIN 45 41 87 CALM 30.25R ORANGEBURG CLOUDY 48 42 80 E6 30.22F BARNWELL NOT AVBL AIKEN CLOUDY 45 41 87 NE5 30.24R MANNING NOT AVBL COLUMBIA LGT RAIN 49 46 90 NE3 30.23S SUMTER LGT RAIN 47 44 88 NE5 30.22S FLORENCE CLOUDY 47 42 83 N5 30.26R MYRTLE BEACH CLOUDY 48 36 61 N7 30.27R N MYRTLE BEACH CLOUDY 47 37 68 N6 30.24R $$ GAZ063-065-086>088-099>101-113>116-118-119-134>141-150-041100- ...SOUTHEAST GEORGIA... CITY SKY/WX TMP DP RH WIND PRES REMARKS SAVANNAH ARPT MOCLDY 52 43 71 NE8 30.18F HUNTER AAF MOCLDY 54 48 78 N7 30.15F FORT STEWART MOCLDY 50 44 79 N3 30.14S STATESBORO CLOUDY 51 43 73 E5 30.18F SYLVANIA CLOUDY N/A N/A N/A E8 30.19S CLAXTON CLOUDY 52 45 76 NE7 30.17F ...CSRA...CENTRAL AND FAR SOUTHEAST GEORGIA... CITY SKY/WX TMP DP RH WIND PRES REMARKS THOMSON CLOUDY 49 46 88 CALM 30.23F AUGUSTA-BUSH CLOUDY 50 41 71 E6 30.19F AUGUSTA-DANIEL CLOUDY 50 40 68 E6 30.19F SWAINSBORO CLOUDY 52 41 66 E6 30.17S VIDALIA MOCLDY 52 46 82 E9 30.14F EASTMAN PTSUNNY 54 33 46 E6 30.15S HAZLEHURST FAIR 54 45 72 E7 30.12F ALMA CLOUDY 53 46 77 NE9 30.10F WAYCROSS PTCLDY 55 52 89 E7 30.11F JESUP FAIR 52 50 93 E5 30.14F BAXLEY FAIR 52 46 82 E8 30.12F BRUNSWICK CLOUDY 59 55 88 NE6 30.14S SAINT SIMONS MOCLDY 63 53 70 E10 30.12F $$ SCZ027-028-034-036>038-045-046-048>050-GAZ119-141-041100- ...LAKE AND SUPPLEMENTAL COASTAL OBSERVATIONS... STATION/POSITION TIME TEMP WIND PRES WAVE SWELL AIR SEA DIR/SP/G HT/PER HT/PER/DIR (UTC) (F) (DEG/KT/KT) (MB) (FT/S) (FT/S/D) WINYAH BAY 0845 48 330/ 3 1023.0 LAKE MURRAY 0920 48 30/ 2/ 4 1023.4 ACE BASIN NERRS 0845 51 10/ 3 1023.0 FORT PULASKI 0948 59 62 80/ 13/ 16 1021.7F SAPELO ISLAND 0900 60 90/ 8 1021.0 $$ ANZ835-935-AMZ111-154-330-350-352-354-370-450-454-472-041100- ...C-MAN AND BUOY OBSERVATIONS... STATION/POSITION TIME TEMP WIND PRES WAVE SWELL AIR SEA DIR/SP/G HT/PER HT/PER/DIR (UTC) (F) (DEG/KT/KT) (MB) (FT/S) (FT/S/D) BUOY 41004 0950 62 74 40/ 6/ 10 1022.2R 3/ 6 2/ 70/ 6 BUOY 41008 0950 65 64 90/ 16/ 17 1020.2F 4/ 5 2/ 90/ 7 FOLLY BEACH CMAN 0900 52 360/ 8/ 10 1023.6R CAPERS NEARSHORE 0908 53 62 10/ 10/ 14 1023.0S FRIPP NEARSHORE 0908 59 61 50/ 12/ 16 1022.5R STATION/POSITION TIME TEMP WIND PRES WAVE SWELL AIR SEA DIR/SP/G HT/PER HT/PER/DIR (UTC) (F) (DEG/KT/KT) (MB) (FT/S) (FT/S/D) 5E ST. MARYS GA 0930 65 N/A 4/ 6 FRYING PAN BUOY 0950 60 73 30/ 10/ 16 1022.5R 3/ 9 3/ 70/ 9 BUOY 41025 0950 54 75 10/ 14/ 19 1023.2R 5/ 9 5/ 50/ 9 CAPE LOOKOUT NC 0900 49 10/ 10/ 12 1023.5R BUOY 41002 0950 64 73 50/ 12/ 16 1020.6F 5/ 8 5/ 30/ 8 BUOY 41010 NOT AVBL ST AUGUSTINE FL 1000 68 66 110/ 7/ 8 1020.3F $$

USA.gov is the U.S. government's official web portal to all federal, state and local government web resources and services.